Wind_Speed
42 44 44 45 45 47 48 48 50 51 50 50 49 50 50 50 51 52 53 53 53 54 54 55 55 55 55 56 56 56 57 57 57 56 56 56 56 56 57 58 58 58 58
43 43 44 45 46 47 48 49 49 50 51 51 50 50 50 51 51 51 52 53 54 54 55 55 56 56 56 57 57 57 58 59 59 59 59 58 58 58 59 60 60 60 60
43 44 44 45 46 46 48 49 50 50 51 51 51 51 51 51 52 52 52 53 53 54 55 56 56 57 57 57 57 58 58 59 59 60 60 60 60 61 61 61 61 61 60
44 45 45 46 47 47 48 49 50 51 52 52 52 52 52 53 53 53 53 53 53 54 55 56 56 57 57 58 57 58 58 58 59 59 59 60 61 61 62 63 63 62 61
45 45 46 47 48 48 49 49 50 51 52 52 53 53 53 54 54 54 55 55 56 56 57 57 58 58 58 58 58 58 59 59 59 59 60 60 61 61 63 64 64 63 63
44 45 46 47 48 49 50 51 51 52 53 53 54 55 55 55 56 56 56 57 57 58 58 59 59 59 59 59 59 59 59 59 60 61 61 61 61 62 63 63 64 64 64
44 45 46 48 49 50 50 51 52 53 54 55 55 56 57 57 57 57 57 57 58 58 58 59 59 59 59 59 60 60 60 61 61 61 61 61 62 62 63 64 64 64 63
44 45 46 47 49 50 51 51 52 53 54 55 56 57 58 58 58 58 59 59 59 59 59 59 59 59 59 59 61 61 60 60 61 62 62 62 62 62 62 62 62 63 63
44 45 46 47 48 49 50 51 52 53 54 55 56 57 58 58 59 59 60 60 60 59 59 60 60 59 59 60 61 61 61 60 60 61 61 61 61 61 62 62 63 63 63
44 45 46 47 48 49 50 51 52 53 54 55 56 57 57 58 58 59 59 60 60 60 60 60 60 60 60 60 61 61 61 60 60 60 60 60 61 61 62 62 63 64 64
45 45 46 47 48 49 50 51 52 53 53 54 55 56 57 58 58 59 59 60 60 60 60 60 59 59 59 60 61 61 61 61 61 61 61 61 62 62 62 62 63 63 63
46 47 47 48 49 49 50 51 51 52 53 54 55 55 56 57 58 58 59 59 59 59 59 60 60 60 60 60 60 61 61 61 61 61 62 61 62 62 62 62 62 63 62
47 47 48 49 50 50 51 51 52 52 53 53 54 54 55 56 57 58 58 59 58 59 59 59 59 60 60 59 60 60 60 60 60 60 61 61 61 61 62 62 62 62 62
47 47 48 49 50 51 51 52 52 52 53 53 53 54 54 55 56 57 58 58 58 58 58 58 58 58 58 58 58 58 58 59 60 60 60 60 61 61 61 61 61 62 61
46 47 48 48 49 50 51 51 52 52 53 53 54 54 55 55 56 57 57 58 58 57 57 57 57 57 57 56 57 57 58 58 59 59 59 59 59 59 59 59 60 60 61
46 46 46 47 47 48 49 50 51 52 52 52 53 54 55 55 56 56 56 56 56 56 56 56 56 55 55 55 55 56 56 57 57 58 58 57 57 57 57 57 57 58 58
45 45 46 46 47 47 48 49 49 50 50 51 52 53 53 54 54 54 55 55 54 54 54 54 54 54 54 54 55 55 55 55 55 55 56 56 56 55 55 55 55 55 55
45 45 46 46 46 47 47 48 48 49 49 50 50 51 51 52 52 52 52 52 52 53 53 53 53 53 53 54 54 54 54 54 54 54 54 54 54 54 53 53 52 52 52
44 45 45 45 46 46 46 47 47 48 48 49 49 49 50 50 50 50 50 50 50 50 51 51 51 52 52 52 52 52 53 53 53 53 53 52 52 52 51 51 50 50 50
44 44 45 45 45 45 45 46 47 47 48 48 48 48 48 48 48 48 48 48 48 48 48 48 48 48 49 49 49 50 50 50 50 50 50 50 50 50 49 49 49 48 48
44 44 44 44 45 45 46 46 46 46 46 46 46 46 46 46 46 46 46 46 46 45 45 45 45 46 46 46 46 46 47 47 47 47 48 48 48 48 47 47 46 46 45
44 45 45 45 46 46 46 46 46 45 45 45 45 45 45 44 44 44 43 43 43 43 43 43 43 43 43 44 44 44 44 44 45 45 45 45 46 46 45 45 44 44 43
45 45 45 46 46 45 45 45 45 44 44 43 43 42 42 42 42 41 41 41 41 41 41 41 41 41 42 42 43 43 42 42 42 43 43 43 44 44 43 42 42 42 41
44 44 44 44 44 44 43 43 42 42 41 41 41 40 40 40 39 39 39 39 39 40 39 39 39 39 40 40 40 40 40 40 40 40 40 41 41 41 40 40 39 39 39
42 43 42 42 42 41 41 40 40 40 40 39 39 39 38 38 37 38 38 38 38 37 37 37 38 38 38 38 38 38 38 38 38 38 38 38 38 38 38 38 37 37 36
41 41 41 40 40 40 40 39 39 39 38 38 37 37 36 36 36 36 36 36 36 36 35 36 36 37 37 37 37 37 37 37 37 36 36 36 36 36 36 36 35 35 35
Wind_Direction
262 261 260 260 260 259 259 260 260 259 259 260 260 261 261 262 263 264 264 265 266 266 266 266 266 266 265 265 265 265 265 265 264 263 262 261 261 261 262 261 262 262 262
262 261 261 260 260 261 261 261 261 261 261 261 262 263 264 263 263 263 264 265 266 267 267 266 267 267 267 266 267 267 266 266 265 264 263 262 262 262 262 262 262 263 262
263 262 262 261 261 262 262 262 262 262 261 261 262 263 264 264 265 265 265 265 265 266 266 266 267 267 267 267 267 267 267 267 265 264 263 264 263 263 263 263 263 264 263
264 264 264 263 263 263 263 263 263 262 262 262 263 264 265 265 266 266 266 266 266 266 267 267 266 266 266 267 267 267 266 266 266 265 264 264 264 264 263 263 264 264 264
266 265 265 265 264 265 264 264 264 263 263 263 264 265 265 266 266 266 267 267 267 267 268 268 267 267 267 267 267 267 266 266 266 266 265 264 264 265 264 264 264 264 264
268 267 266 266 266 266 265 264 263 264 264 264 264 264 264 265 265 267 268 269 269 269 268 268 268 268 268 267 267 267 267 267 266 266 266 265 265 265 265 265 264 264 264
270 269 268 268 267 267 266 265 264 265 265 265 265 266 266 266 266 267 268 269 269 269 269 268 268 268 268 267 267 268 268 268 267 267 266 265 265 266 265 265 265 264 265
272 271 270 270 269 268 268 267 266 266 265 265 265 266 266 267 267 268 268 269 269 270 269 269 268 268 268 268 267 267 268 268 267 266 265 265 266 265 265 265 265 265 266
274 273 272 271 271 270 269 267 267 267 267 267 266 267 267 267 268 268 268 269 270 270 270 270 269 268 268 268 267 267 267 267 266 266 265 265 265 266 265 265 266 266 267
276 275 274 272 271 270 270 269 269 268 268 267 268 268 268 268 268 269 270 270 270 270 270 269 269 268 268 267 267 267 267 266 266 266 266 266 266 266 266 266 267 267 267
277 276 275 274 273 272 271 270 270 270 269 269 269 269 269 269 269 269 270 270 270 270 269 269 268 268 268 268 268 267 266 266 265 265 266 267 267 267 267 267 267 266 267
278 277 276 276 275 274 273 272 272 271 271 270 270 270 270 269 269 269 269 270 270 270 269 269 268 268 268 268 268 268 267 266 266 266 266 266 266 266 267 267 267 267 267
278 278 277 277 276 276 275 274 274 273 272 272 271 271 270 270 270 270 270 271 271 271 270 269 268 268 268 268 268 268 267 266 266 266 267 266 266 266 266 266 267 267 267
280 279 279 278 277 277 277 276 275 274 273 273 272 272 272 272 272 272 272 272 272 271 270 269 268 267 267 267 267 267 267 267 268 267 267 266 266 266 266 266 266 266 266
282 282 281 280 279 278 277 277 277 276 275 274 274 273 273 273 273 273 273 272 272 271 270 269 268 267 268 268 268 268 268 268 268 268 267 267 267 266 266 266 266 266 266
284 284 283 281 280 279 279 278 278 278 277 277 277 276 276 276 275 274 274 273 272 271 270 269 268 267 267 268 268 268 268 268 267 267 267 267 266 266 266 266 266 266 266
285 285 284 283 282 281 280 280 279 279 279 279 278 278 277 276 276 275 274 273 271 270 270 269 269 268 268 268 268 268 267 267 266 266 266 266 266 266 266 266 266 266 265
287 286 285 285 284 283 282 281 281 281 280 280 280 279 278 277 276 275 274 273 272 271 270 270 269 269 268 267 267 266 266 266 265 265 266 266 266 266 265 266 266 266 265
288 288 287 286 286 285 284 283 283 283 282 281 281 280 279 278 277 276 275 274 273 272 271 270 270 269 268 267 266 266 265 265 265 265 266 266 265 265 265 265 265 265 265
290 290 289 288 287 286 286 286 286 285 284 283 282 281 280 279 277 276 275 275 273 272 271 270 269 269 268 267 266 265 265 265 265 265 265 265 265 265 264 265 265 265 265
291 291 290 290 289 288 287 287 287 287 286 284 283 281 280 279 278 276 275 274 273 272 270 270 269 268 267 266 266 265 265 265 265 265 264 264 264 264 264 264 264 265 265
291 291 291 290 290 290 289 288 288 287 286 285 283 282 280 279 277 276 275 274 272 271 270 269 268 267 266 265 265 265 265 265 265 265 264 264 264 263 263 264 263 263 263
291 291 291 291 291 291 290 289 288 287 286 285 284 282 280 278 277 275 274 273 273 271 270 269 268 266 265 265 265 266 266 266 266 265 265 264 264 263 262 262 262 262 262
293 292 292 292 292 291 290 290 288 288 286 285 284 282 281 278 276 275 274 273 273 272 270 268 267 266 266 265 265 265 266 266 266 266 265 264 263 262 261 261 261 261 260
294 293 293 293 292 291 291 290 288 287 287 286 284 283 282 279 277 275 274 274 273 272 270 268 267 266 266 265 265 265 266 266 267 266 265 263 262 261 260 260 259 259 259
294 294 294 293 292 292 291 290 289 288 287 286 285 284 283 281 278 277 276 275 273 272 270 269 268 267 266 266 266 265 265 265 265 265 264 263 261 261 260 259 258 258 258
Height
5607 5607 5608 5608 5609 5609 5610 5610 5611 5612 5612 5612 5612 5613 5613 5613 5614 5614 5615 5615 5616 5616 5616 5616 5617 5616 5616 5617 5617 5618 5618 5619 5621 5623 5624 5625 5625 5626 5627 5628 5629 5630 5631
5594 5594 5594 5595 5595 5596 5596 5597 5596 5597 5598 5598 5598 5598 5599 5599 5599 5599 5600 5600 5600 5601 5601 5601 5601 5601 5601 5601 5601 5601 5602 5602 5604 5606 5607 5608 5609 5610 5611 5612 5613 5614 5615
5581 5581 5581 5582 5582 5582 5582 5582 5582 5582 5583 5583 5584 5584 5584 5584 5584 5584 5584 5585 5585 5585 5585 5585 5585 5585 5585 5585 5585 5585 5585 5586 5586 5588 5590 5591 5592 5593 5594 5595 5596 5597 5598
5568 5568 5568 5568 5568 5569 5568 5568 5568 5568 5568 5568 5569 5569 5569 5569 5569 5569 5568 5568 5569 5569 5568 5569 5569 5569 5569 5569 5568 5569 5569 5569 5570 5571 5572 5573 5575 5575 5576 5578 5579 5580 5580
5554 5554 5554 5554 5554 5554 5554 5554 5554 5553 5553 5554 5554 5554 5554 5554 5553 5553 5553 5552 5552 5552 5552 5552 5552 5552 5552 5552 5552 5552 5552 5552 5553 5553 5555 5556 5556 5557 5558 5559 5561 5561 5562
5541 5540 5540 5540 5540 5539 5539 5539 5539 5539 5538 5538 5538 5538 5538 5538 5537 5537 5536 5536 5535 5535 5535 5535 5535 5535 5535 5535 5535 5535 5535 5535 5536 5536 5537 5538 5539 5539 5539 5540 5541 5543 5545
5527 5527 5526 5525 5525 5524 5524 5524 5524 5523 5523 5522 5522 5522 5521 5521 5521 5520 5519 5519 5519 5518 5518 5517 5517 5517 5517 5517 5517 5517 5517 5517 5517 5518 5519 5520 5520 5521 5521 5521 5521 5522 5524
5514 5513 5511 5510 5510 5509 5508 5508 5508 5507 5507 5506 5506 5505 5505 5504 5503 5503 5502 5501 5501 5500 5500 5500 5500 5500 5499 5499 5499 5499 5499 5499 5499 5499 5501 5501 5501 5501 5501 5502 5502 5503 5505
5500 5498 5497 5496 5495 5494 5493 5492 5491 5491 5490 5489 5489 5488 5488 5487 5486 5485 5484 5484 5483 5483 5482 5482 5481 5482 5481 5481 5481 5482 5481 5481 5480 5481 5482 5482 5482 5482 5482 5482 5482 5483 5485
5486 5484 5483 5481 5479 5478 5477 5476 5475 5474 5473 5473 5472 5471 5470 5470 5469 5467 5466 5466 5466 5465 5464 5463 5463 5463 5462 5461 5461 5462 5463 5463 5462 5463 5463 5464 5464 5464 5463 5463 5463 5463 5464
5472 5470 5468 5466 5464 5463 5462 5460 5459 5458 5457 5456 5456 5455 5453 5452 5451 5450 5448 5447 5446 5446 5446 5445 5445 5444 5443 5443 5442 5443 5443 5443 5444 5444 5445 5445 5445 5445 5444 5444 5444 5444 5445
5458 5456 5453 5451 5449 5447 5445 5444 5442 5441 5440 5439 5437 5436 5435 5433 5432 5431 5430 5428 5427 5427 5427 5426 5426 5425 5424 5424 5424 5423 5423 5424 5424 5425 5426 5426 5426 5426 5425 5425 5425 5425 5426
5443 5441 5438 5436 5434 5431 5430 5428 5426 5424 5423 5421 5420 5419 5418 5416 5414 5413 5411 5409 5408 5407 5407 5407 5406 5406 5405 5405 5405 5404 5404 5404 5405 5406 5406 5407 5407 5407 5407 5407 5406 5406 5407
5428 5425 5423 5420 5418 5415 5413 5411 5409 5408 5406 5404 5402 5401 5400 5398 5396 5394 5393 5391 5389 5388 5388 5388 5387 5387 5386 5386 5386 5386 5385 5386 5386 5387 5387 5387 5387 5387 5387 5387 5387 5387 5388
5413 5410 5408 5405 5402 5399 5397 5394 5392 5390 5388 5386 5385 5383 5382 5380 5378 5376 5373 5372 5371 5370 5369 5369 5368 5368 5368 5368 5368 5368 5368 5367 5367 5367 5367 5367 5368 5368 5368 5368 5368 5368 5369
5398 5395 5392 5389 5386 5383 5381 5378 5374 5373 5370 5368 5366 5364 5363 5361 5359 5357 5355 5353 5352 5351 5350 5350 5350 5350 5350 5350 5350 5350 5350 5349 5349 5349 5349 5349 5349 5349 5350 5350 5349 5350 5351
5383 5379 5376 5373 5370 5367 5364 5362 5359 5356 5353 5351 5348 5346 5344 5343 5341 5339 5337 5335 5334 5332 5332 5332 5332 5332 5332 5332 5333 5333 5332 5332 5331 5331 5331 5331 5331 5332 5332 5332 5332 5332 5333
5368 5364 5361 5358 5355 5351 5348 5345 5343 5340 5338 5334 5332 5329 5327 5325 5323 5321 5319 5318 5317 5315 5315 5315 5315 5314 5314 5314 5314 5314 5314 5314 5314 5314 5314 5314 5314 5315 5315 5315 5315 5316 5316
5353 5349 5346 5342 5339 5336 5333 5330 5326 5324 5321 5319 5316 5313 5310 5308 5306 5304 5302 5301 5300 5299 5298 5298 5297 5297 5297 5297 5297 5297 5297 5297 5297 5297 5297 5297 5297 5298 5298 5299 5299 5299 5300
5339 5334 5331 5327 5324 5321 5317 5314 5311 5308 5305 5302 5300 5297 5294 5292 5290 5288 5286 5284 5283 5282 5281 5281 5281 5280 5280 5280 5280 5280 5280 5280 5280 5280 5280 5280 5281 5281 5282 5283 5283 5284 5284
5324 5320 5316 5313 5309 5306 5302 5299 5296 5292 5289 5286 5284 5281 5278 5276 5274 5272 5271 5269 5267 5266 5265 5265 5264 5264 5264 5264 5264 5264 5264 5264 5264 5264 5264 5265 5265 5266 5266 5267 5268 5268 5269
5310 5306 5302 5298 5295 5291 5287 5284 5280 5277 5274 5271 5268 5266 5263 5261 5259 5257 5255 5254 5252 5251 5250 5250 5249 5249 5249 5249 5250 5250 5250 5250 5250 5250 5250 5250 5251 5251 5252 5253 5253 5254 5255
5295 5291 5288 5284 5280 5276 5272 5269 5266 5262 5259 5256 5254 5251 5248 5246 5244 5242 5241 5239 5238 5237 5236 5235 5235 5235 5235 5235 5235 5236 5236 5236 5236 5236 5236 5237 5237 5237 5238 5239 5240 5241 5242
5280 5277 5273 5269 5265 5261 5258 5254 5251 5248 5245 5242 5239 5237 5234 5232 5231 5229 5227 5226 5224 5223 5222 5222 5222 5222 5222 5222 5222 5222 5222 5223 5223 5223 5223 5224 5224 5225 5225 5226 5227 5228 5229
5266 5262 5258 5254 5251 5247 5244 5240 5237 5234 5231 5228 5226 5223 5221 5219 5217 5216 5214 5213 5211 5210 5209 5209 5209 5209 5209 5209 5209 5210 5210 5210 5210 5210 5211 5211 5212 5212 5213 5214 5216 5217 5218
5252 5248 5244 5240 5237 5233 5230 5227 5224 5221 5218 5215 5213 5210 5208 5206 5204 5202 5201 5200 5199 5198 5197 5197 5196 5196 5197 5197 5197 5197 5197 5198 5198 5198 5198 5199 5200 5201 5202 5203 5204 5206 5207